Weather History for Oakes, ND

Change the Weather History Date:

Friday, January 4, 2013

  Actual Average (KABR) Record (KABR)
Temperature  
Mean Temperature 14 °F 12 °F  
Max Temperature 26 °F 22 °F 54 °F (2012)
Min Temperature 3 °F 2 °F -34 °F (1912)
Degree Days  
Heating Degree Days 50 53  
Month to date heating degree days 212  
Since 1 July heating degree days 3703  
Cooling Degree Days 0 0  
Month to date cooling degree days 0  
Year to date cooling degree days 0  
Moisture  
Dew Point 9 °F    
Average Humidity 86    
Maximum Humidity 100    
Minimum Humidity 69    
Precipitation  
Precipitation 0.00 in 0.01 in 2.00 in (1897)
Month to date precipitation 0.07  
Year to date precipitation 0.07  
Snow  
Snow 0.00 in - - ()
Month to date snowfall  
Since 1 July snowfall  
Snow Depth -    
Sea Level Pressure  
Sea Level Pressure 30.04 in    
Wind  
Wind Speed 8 mph (SSW)    
Max Wind Speed 14 mph    
Max Gust Speed -    
Visibility 10 miles    
Events      
T = Trace of Precipitation, MM = Missing Value Source: NWS Daily Summary

Daily Weather History Graph

Daily Weather History Graph

Search for Another Location

Airport:

Trip Planner

Search our weather history database for the weather conditions in past years. The results will help you decide how hot, cold, wet, or windy it might be!

Date:

Astronomy

Jan. 04, 2013 Rise Set
Actual Time 8:14 AM CST 5:00 PM CST
Civil Twilight 7:40 AM CST 5:34 PM CST
Nautical Twilight 7:02 AM CST 6:12 PM CST
Astronomical Twilight 6:26 AM CST 6:48 PM CST
Moon 12:00 AM CST (1/4) 11:32 AM CST (1/4)
Length of Visible Light 9h 54m
Length of Day
8h 45m
Waning Gibbous, 55% of the Moon is Illuminated
Jan 4
Waning Gibbous
Jan 4
Last Quarter
Jan 11
New
Jan 18
First Quarter
Jan 26
Full

Hourly Weather History & Observations

Time (CST) Temp. Windchill Dew Point Humidity Pressure Visibility Wind Dir Wind Speed Gust Speed Precip Events Conditions
12:15 AM 12.2 °F 0.7 °F 8.6 °F 85% 30.01 in 10.0 mi SSW 8.1 mph - N/A   Clear
12:35 AM 10.4 °F -3.3 °F 6.8 °F 85% 30.01 in 10.0 mi SSW 10.4 mph - N/A   Unknown
12:55 AM 10.4 °F -4.1 °F 6.8 °F 85% 30.00 in 10.0 mi South 11.5 mph - N/A   Unknown
1:15 AM 10.4 °F -5.4 °F 6.8 °F 85% 30.00 in 10.0 mi South 13.8 mph - N/A   Unknown
1:35 AM 8.6 °F -7.7 °F 6.8 °F 92% 30.00 in 10.0 mi SSW 13.8 mph - N/A   Unknown
1:55 AM 8.6 °F -7.0 °F 6.8 °F 92% 30.00 in 10.0 mi South 12.7 mph - N/A   Unknown
2:35 AM 8.6 °F -4.7 °F 6.8 °F 92% 30.00 in 10.0 mi SSW 9.2 mph - N/A   Clear
2:55 AM 8.6 °F -5.5 °F 6.8 °F 92% 30.01 in 10.0 mi South 10.4 mph - N/A   Unknown
3:15 AM 8.6 °F -5.5 °F 5.0 °F 85% 30.01 in 10.0 mi South 10.4 mph - N/A   Unknown
5:55 AM 8.6 °F -6.3 °F 5.0 °F 85% 30.02 in 10.0 mi SSW 11.5 mph - N/A   Unknown
6:15 AM 8.6 °F -4.7 °F 6.8 °F 92% 30.02 in 10.0 mi SW 9.2 mph - N/A   Unknown
6:35 AM 6.8 °F -5.9 °F 5.0 °F 92% 30.03 in 10.0 mi SSW 8.1 mph - N/A   Clear
7:15 AM 6.8 °F -4.8 °F 1.4 °F 79% 30.03 in 10.0 mi South 6.9 mph - N/A   Unknown
7:35 AM 5.0 °F -6.9 °F 1.4 °F 85% 30.05 in 10.0 mi South 6.9 mph - N/A   Unknown
7:55 AM 5.0 °F -9.1 °F 1.4 °F 85% 30.05 in - South 9.2 mph - N/A   Unknown
8:15 AM 5.0 °F -8.1 °F 1.4 °F 85% 30.06 in 10.0 mi South 8.1 mph - N/A   Unknown
8:35 AM 6.8 °F -4.8 °F 3.2 °F 85% 30.06 in 10.0 mi SSW 6.9 mph - N/A   Clear
8:55 AM 5.0 °F -9.1 °F 1.4 °F 85% 30.07 in 10.0 mi South 9.2 mph - N/A   Unknown
9:15 AM 5.0 °F -8.1 °F 1.4 °F 85% 30.08 in 10.0 mi South 8.1 mph - N/A   Unknown
9:35 AM 6.8 °F -5.9 °F 3.2 °F 85% 30.08 in 10.0 mi South 8.1 mph - N/A   Unknown
9:55 AM 6.8 °F -6.9 °F 5.0 °F 92% 30.09 in 10.0 mi SSW 9.2 mph - N/A   Unknown
10:15 AM 10.4 °F 2.2 °F 6.8 °F 85% 30.10 in 10.0 mi South 4.6 mph - N/A   Unknown
10:35 AM 14.0 °F 2.9 °F 8.6 °F 79% 30.10 in 10.0 mi South 8.1 mph - N/A   Clear
10:55 AM 15.8 °F 8.6 °F 10.4 °F 79% 30.10 in 10.0 mi SSW 4.6 mph - N/A   Clear
11:15 AM 19.4 °F 14.3 °F 12.2 °F 74% 30.10 in 10.0 mi WSW 3.5 mph - N/A   Clear
11:35 AM 21.2 °F 16.4 °F 14.0 °F 74% 30.09 in 10.0 mi SSW 3.5 mph - N/A   Unknown
11:55 AM 17.6 °F 9.3 °F 14.0 °F 86% 30.09 in 10.0 mi SW 5.8 mph - N/A   Unknown
12:15 PM 17.6 °F 10.7 °F 14.0 °F 86% 30.08 in 10.0 mi SSW 4.6 mph - N/A   Unknown
12:35 PM 19.4 °F 12.8 °F 15.8 °F 86% 30.07 in 10.0 mi SW 4.6 mph - N/A   Unknown
12:55 PM 23.0 °F 15.8 °F 15.8 °F 74% 30.06 in 10.0 mi SW 5.8 mph - N/A   Unknown
1:15 PM 24.8 °F 20.5 °F 15.8 °F 69% 30.05 in 10.0 mi WNW 3.5 mph - N/A   Unknown
1:35 PM 24.8 °F 20.5 °F 17.6 °F 74% 30.05 in 10.0 mi NW 3.5 mph - N/A   Unknown
1:55 PM 26.6 °F - 17.6 °F 69% 30.05 in 10.0 mi Calm Calm - N/A   Unknown
2:15 PM 24.8 °F 20.5 °F 19.4 °F 80% 30.05 in 10.0 mi NNW 3.5 mph - N/A   Unknown
2:35 PM 26.6 °F 21.2 °F 17.6 °F 69% 30.06 in 10.0 mi WSW 4.6 mph - N/A   Unknown
2:55 PM 24.8 °F 17.9 °F 17.6 °F 74% 30.05 in 10.0 mi WSW 5.8 mph - N/A   Unknown
3:15 PM 24.8 °F 16.9 °F 17.6 °F 74% 30.06 in 10.0 mi SW 6.9 mph - N/A   Unknown
3:35 PM 24.8 °F 16.9 °F 17.6 °F 74% 30.06 in 10.0 mi SW 6.9 mph - N/A   Unknown
3:55 PM 23.0 °F 17.0 °F 17.6 °F 80% 30.06 in 10.0 mi SW 4.6 mph - N/A   Unknown
4:15 PM 23.0 °F 17.0 °F 17.6 °F 80% 30.06 in 10.0 mi South 4.6 mph - N/A   Unknown
4:35 PM 23.0 °F 15.8 °F 17.6 °F 80% 30.06 in 10.0 mi South 5.8 mph - N/A   Unknown
4:55 PM 17.6 °F 9.3 °F 15.8 °F 93% 30.05 in 10.0 mi SSE 5.8 mph - N/A   Unknown
5:35 PM 15.8 °F 6.1 °F 14.0 °F 93% 30.05 in 10.0 mi SSE 6.9 mph - N/A   Unknown
5:55 PM 12.2 °F 1.7 °F 10.4 °F 92% 30.05 in 10.0 mi South 6.9 mph - N/A   Clear
6:15 PM 14.0 °F 5.1 °F 10.4 °F 86% 30.06 in 10.0 mi South 5.8 mph - N/A   Clear
6:35 PM 14.0 °F 8.2 °F 12.2 °F 93% 30.06 in 10.0 mi SSW 3.5 mph - N/A   Unknown
6:55 PM 14.0 °F 6.5 °F 12.2 °F 93% 30.06 in 10.0 mi SSW 4.6 mph - N/A   Unknown
7:15 PM 10.4 °F 0.8 °F 8.6 °F 92% 30.05 in 10.0 mi South 5.8 mph - N/A   Unknown
7:35 PM 6.8 °F -5.9 °F 6.8 °F 100% 30.04 in 10.0 mi SSE 8.1 mph - N/A   Unknown
8:15 PM 8.6 °F -3.7 °F 6.8 °F 92% 30.04 in 10.0 mi South 8.1 mph - N/A   Clear
8:35 PM 8.6 °F -1.3 °F 8.6 °F 100% 30.03 in 10.0 mi South 5.8 mph - N/A   Clear
8:55 PM 6.8 °F -0.1 °F 6.8 °F 100% 30.04 in 10.0 mi SW 3.5 mph - N/A   Unknown
9:15 PM 6.8 °F -3.5 °F 6.8 °F 100% 30.03 in 10.0 mi South 5.8 mph - N/A   Unknown
9:35 PM 5.0 °F -8.1 °F 5.0 °F 100% 30.01 in 10.0 mi South 8.1 mph - N/A   Unknown
9:55 PM 5.0 °F -9.1 °F 5.0 °F 100% 30.00 in 10.0 mi South 9.2 mph - N/A   Unknown
10:15 PM 5.0 °F -6.9 °F 3.2 °F 92% 30.00 in - South 6.9 mph - N/A   Unknown
10:35 PM 6.8 °F -5.9 °F 5.0 °F 92% 30.00 in 10.0 mi SSE 8.1 mph - N/A   Unknown
10:55 PM 5.0 °F -10.0 °F 3.2 °F 92% 29.99 in 10.0 mi SSE 10.4 mph - N/A   Clear
11:15 PM 3.2 °F -7.8 °F 1.4 °F 92% 30.01 in 10.0 mi South 5.8 mph - N/A   Unknown
11:35 PM 5.0 °F -8.1 °F 1.4 °F 85% 29.99 in 10.0 mi SSE 8.1 mph - N/A   Unknown
11:55 PM 5.0 °F -6.9 °F 1.4 °F 85% 29.98 in - SSE 6.9 mph - N/A   Unknown